ANIK F1R                
1 28868U 05036A   19260.67495684 -.00000078  00000-0  00000+0 0  9998
2 28868   0.0140 144.9717 0001110 351.2457 355.7705  1.00269770 51440
BREEZE-M R/B            
1 28869U 05036B   19257.73686592 -.00000229  00000-0  00000-0 0  9991
2 28869  10.4149 334.1628 6283431 279.2355  19.2087  2.10741586107864
BREEZE-M DEB [TANK]     
1 28870U 05036C   19260.55809097  .00001558  00000-0  38692-3 0  9990
2 28870  49.4424  52.5867 5466724 123.9091 300.5334  4.84566973278823